Regional Weather Roundup
Issued by NWS

Home | Current Version | Previous Version | Graphics & Text | Print | Product List | Glossary On
Versions: 1 2 3 4 5 6 7 8 9 10 11 12 13 14 15 16 17 18 19 20 21 22 23 24 25 26 27 28 29 30 31 32 33 34 35 36 37 38 39 40 41 42 43 44 45 46 47 48 49 50
000
ASUS45 KPSR 210400
RWRAZ

ARIZONA REGIONAL HOURLY WEATHER ROUNDUP
NATIONAL WEATHER SERVICE PHOENIX AZ
900 PM MST MON APR 20 2015

NOTE: FAIR INDICATES FEW OR NO CLOUDS BELOW 12,000 FEET WITH NO
SIGNIFICANT WEATHER AND/OR OBSTRUCTIONS TO VISIBILITY.

AZZ001>003-036-210500-
NORTHWEST ARIZONA

CITY           SKY/WX    TMP DP  RH WIND       PRES   REMARKS
KINGMAN        CLEAR     63  14  15 S13       29.85R
$$

AZZ004>008-015-016-018-210500-
NORTH CENTRAL ARIZONA

CITY           SKY/WX    TMP DP  RH WIND       PRES   REMARKS
GRAND CANYON   PTCLDY    35  14  42 CALM      30.01R
WILLIAMS       MOCLDY    48  18  29 S7        30.09R
PRESCOTT       CLEAR     58  17  20 S8        29.94R
FLAGSTAFF      NOT AVBL
PAYSON         PTCLDY    63  16  16 W5        29.97R
PAGE           CLEAR     68  15  13 N7        29.84R
$$

AZZ009>014-017-210500-
NORTHEAST ARIZONA

CITY           SKY/WX    TMP DP  RH WIND       PRES   REMARKS
WINSLOW        NOT AVBL
SAINT JOHNS    MOCLDY    60  19  20 SE5       29.97R
WINDOW ROCK    MOCLDY    48  18  30 CALM      30.01R
SHOW LOW       PTCLDY    46  16  29 SW6       30.03R
$$

AZZ023-210500-
GREATER PHOENIX AREA

CITY           SKY/WX    TMP DP  RH WIND       PRES   REMARKS
PHOENIX        PTCLDY    82  22  11 W6        29.71R
LUKE AFB       CLEAR     76  29  17 W6        29.72R
DEER VALLEY    CLEAR     77  18  11 CALM      29.74R
SCOTTSDALE     CLEAR     80  24  12 CALM      29.76R
MESA-GATEWAY   PTCLDY    77  27  15 NW6       29.75R
CHANDLER       CLEAR     82  23  11 W9        29.73R
$$

AZZ027-028-210500-
SOUTHWEST MARICOPA COUNTY AND PINAL COUNTY

CITY           SKY/WX    TMP DP  RH WIND       PRES   REMARKS
CASA GRANDE    PTCLDY    79  21  11 W10       29.75R
$$

AZZ503-504-507>509-210500-
SOUTHEAST ARIZONA

CITY           SKY/WX    TMP DP  RH WIND       PRES   REMARKS
TUCSON         PTCLDY    75  25  15 W12       29.86R
DAVIS-MONTHAN  CLEAR     74  24  15 W12       29.84R
NOGALES        CLEAR     66  22  18 W7        29.94R
SIERRA VISTA   PTCLDY    67  10  10 W9        29.95R
SAFFORD        PTCLDY    68  21  16 W9        29.81R
$$

AZZ020-021-025-026-031-210500-
SOUTHWEST ARIZONA

CITY           SKY/WX    TMP DP  RH WIND       PRES   REMARKS
YUMA           PTCLDY    77  27  15 S9        29.72R
$$

CAZ031-033-041-043-047-048-061-210500-
SOUTHERN CALIFORNIA

CITY           SKY/WX    TMP DP  RH WIND       PRES   REMARKS
DOWNTOWN L.A.  CLEAR     59  52  77 VRB3      29.89R
L.A. AIRPORT   PTCLDY    58  52  80 W8        29.90R
SAN DIEGO      MOCLDY    62  49  62 SW7       29.92R
BURBANK        CLEAR     58  50  75 S7        29.87R
ONTARIO        CLEAR     59  48  67 W12       29.88R
RIVERSIDE      CLEAR     59  49  69 W6        29.89R
PALM SPRINGS   CLEAR     77  46  33 NW17      29.73R
EL CENTRO NAS  PTCLDY    74  46  36 SW10      29.72R
IMPERIAL       CLEAR     74  40  29 SW5       29.70R
BLYTHE         CLEAR     82  23  11 SW10      29.71R
$$

NVZ020-UTZ003-210500-
SOUTHERN NEVADA-UTAH

CITY           SKY/WX    TMP DP  RH WIND       PRES   REMARKS
LAS VEGAS      NOT AVBL
SALT LAKE CITY CLEAR     59  27  29 SE7       29.88R
$$

NMZ009-TXZ055-210500-
NEW MEXICO-WEST TEXAS

CITY           SKY/WX    TMP DP  RH WIND       PRES   REMARKS
ALBUQUERQUE    PTCLDY    61  23  23 CALM      29.96R
EL PASO        PTCLDY    71  22  15 S6        29.88R
$$


........................KEY........................
SKY/WX - SKY CONDITION/WEATHER
TMP    - TEMPERATURE IN FAHRENHEIT
DP     - DEW POINT IN FAHRENHEIT
RH     - RELATIVE HUMIDITY IN PERCENT
WIND   - DIRECTION AND SPEED IN MILES PER HOUR (MPH)
VRB    - VARIABLE WIND DIRECTION
PRES   - MEAN SEA LEVEL PRESSURE IN INCHES OF MERCURY
         F - FALLING PRESSURE   R - RISING PRESSURE
         S - STEADY PRESSURE
VSB    - VISIBILITY IN MILES
HX     - HEAT INDEX IN FAHRENHEIT
WCI    - WIND CHILL INDEX IN FAHRENHEIT
TC     - TEMPERATURE IN CELSIUS WHICH IS ALSO KNOWN AS
         TEMPERATURE IN CENTIGRADE
AFB    - AIR FORCE BASE
         LUKE AFB IS LUKE AIR FORCE BASE
         DAVIS-MONTHAN IS DAVIS-MONTHAN AIR FORCE BASE
NAS    - NAVAL AIR STATION
         EL CENTRO NAS IS EL CENTRO NAVAL AIR STATION
N/A    - NOT AVAILABLE




USA.gov is the U.S. government's official web portal to all federal, state and local government web resources and services.